Location: Darwin
(12.4628°S, 130.8418°E)
Time: 05:51:41
(UTC+09:30)

ISS - Pass Details

Date: 03 February 2016
Orbit: 400 x 409 km, 51.6° (Epoch: 30 September)

Event Time Altitude Azimuth Distance (km) Brightness Sun altitude
Exits shadow 04:13:20 - 93° (E) 1,860 0.8 -34.1°
Enters shadow 05:11:20 -66° 320° (NW) 12,132 4.1 -21.4°
Maximum altitude 05:47:14 28° 231° (SW) 782 -2.2 -13.3°
